#timestamp,LO_Frequency,Hit,StdDev 
1639159215.7,286047000.2,N
1639159235.5,286047000.6,N
1639159255.4,286047000.7,N
1639159275.2,286047000.9,N
1639159295.1,286047000.4,N
1639159296.0,286047000.4,N
1639159315.8,286047001.1,N
1639159335.6,286047000.9,N
1639159355.5,286047000.8,N
1639159375.3,286047000.7,N
1639159395.2,286046998.6,N
1639159415.9,286047001.1,N
1639159435.7,286047000.5,N
1639159455.6,286047001.1,N
1639159475.4,286046998.1,N
1639159495.2,286046998.6,N
1639159515.1,286046998.6,N
1639159516.0,286046998.6,N
1639159535.8,286047001.2,N
1639159555.7,286046999.0,N
1639159575.5,286046999.3,N
1639159595.3,286047001.1,N
1639159615.2,286046999.7,N
1639159635.0,286047001.0,N
1639159635.9,286047001.0,N
1639159655.8,286046999.2,N
1639159675.6,286046999.1,N
1639159695.4,286046999.6,N
1639159715.3,286046999.6,N
1639159735.1,286046998.8,N
1639159755.8,286046999.0,N
1639159775.7,286046999.2,N
1639159795.5,286046999.4,N
1639159815.4,286046997.0,Y
1639159835.2,286046998.2,P
1639159855.0,286046999.3,N
1639159855.9,286046999.3,N
1639159875.8,286046999.6,N
1639159895.6,286046999.5,N
1639159915.5,286046999.4,N
1639159935.3,286046999.1,N
1639159955.1,286046998.6,Y
1639159975.9,286047000.6,P
1639159995.7,286047000.6,N
1639160015.6,286047001.0,N
1639160035.4,286047000.8,N
1639160055.2,286046998.4,N
1639160075.1,286046998.7,N
1639160076.0,286046998.7,N
1639160095.8,286046998.5,N
1639160115.6,286046998.2,N
1639160135.5,286047000.8,N
1639160155.3,286046999.0,N
1639160175.2,286047000.8,N
1639160195.9,286047001.0,N
1639160215.7,286047001.0,N
1639160235.6,286047001.0,N
1639160255.4,286046998.2,N
1639160275.3,286047000.5,N
1639160295.1,286047000.5,N
1639160296.0,286047000.5,N
1639160315.8,286047000.3,N
1639160335.7,286047000.1,N
1639160355.5,286046999.9,N
1639160375.4,286047000.3,N
1639160395.2,286046998.1,N
1639160415.0,286046999.0,N
1639160415.9,286046999.0,N
1639160435.8,286047000.8,N
1639160455.6,286047001.2,N
1639160475.4,286047000.8,N
1639160495.3,286047000.1,N
1639160515.1,286047000.0,N
1639160535.9,286047001.2,N
1639160555.7,286047000.8,N
1639160575.5,286046998.7,N
1639160595.4,286046998.2,N
1639160615.2,286046998.2,N
1639160635.0,286047000.9,N
1639160636.0,286047000.9,N
1639160655.8,286047000.9,N
1639160675.6,286046998.2,N
1639160695.5,286047000.5,N
1639160715.3,286046999.9,N
1639160735.2,286047000.3,N
1639160755.9,286046998.8,N
1639160775.7,286046996.6,Y
1639160795.6,286046998.6,P
1639160815.4,286046996.6,P
1639160835.2,286046996.7,N
1639160855.1,286046999.5,N
1639160856.0,286046999.5,N
1639160875.8,286046996.8,N
1639160895.7,286046998.8,N
1639160915.5,286046999.0,N
1639160935.3,286047000.7,N
1639160955.2,286046999.2,N
1639160975.0,286047000.6,N
1639160975.9,286047000.6,N
1639160995.8,286047000.3,N
1639161015.6,286047000.9,N
1639161035.4,286046998.6,N
1639161055.3,286047001.1,N
1639161075.1,286046999.6,N
1639161095.8,286046996.7,N
1639161115.7,286046996.8,N
1639161135.5,286046997.8,N
1639161155.4,286046997.4,N
1639161175.2,286046997.3,N
1639161195.0,286046997.4,N
1639161195.9,286046997.4,N
1639161215.8,286046996.8,N
1639161235.6,286046997.7,N
1639161255.4,286046999.1,N
1639161275.3,286047001.1,N
1639161295.1,286047000.7,N
1639161315.9,286046999.1,N
1639161335.7,286046998.7,N
1639161355.5,286046998.8,N
1639161375.4,286046998.6,N
1639161395.2,286046998.3,N
1639161415.0,286046999.5,N
1639161415.9,286046999.5,N
1639161435.8,286046995.8,Y
1639161455.6,286046997.0,P
1639161475.5,286046996.5,P
1639161495.3,286046999.6,N
1639161515.1,286047001.1,N
1639161535.9,286046998.4,N
1639161555.7,286046998.8,N
1639161575.6,286046998.6,N
1639161595.4,286046996.7,N
1639161615.2,286046997.4,N
1639161635.1,286046996.8,N
1639161636.0,286046996.8,N
1639161655.8,286046997.1,N
1639161675.6,286046999.5,N
1639161695.5,286046996.5,N
1639161715.3,286046999.6,N
1639161735.2,286046997.1,N
1639161755.9,286046997.9,N
1639161775.7,286046997.8,N
1639161795.6,286046995.7,Y
1639161815.4,286046996.9,P
1639161835.2,286046996.9,P
1639161855.1,286046996.6,P
1639161856.0,286046996.6,Y
1639161875.8,286047001.1,P
1639161895.7,286047000.9,N
1639161915.5,286046998.6,N
1639161935.3,286046998.6,N
1639161955.2,286047001.0,N
1639161975.0,286047000.8,N
1639161975.9,286047000.8,N
1639161995.8,286047000.2,N
1639162015.6,286047001.0,N
1639162035.4,286047000.8,N
1639162055.3,286047002.4,N
1639162075.1,286047002.8,N
1639162095.8,286047000.7,N
1639162115.7,286046998.5,N
1639162135.5,286047001.1,N
1639162155.4,286047000.1,N
1639162175.2,286047000.5,N
1639162195.0,286046999.8,N
1639162195.9,286046999.8,N
1639162215.8,286047000.1,N
1639162235.6,286047000.6,N
1639162255.5,286047000.4,N
1639162275.3,286047002.8,N
1639162295.1,286047000.0,N
1639162315.9,286046999.8,N
1639162335.7,286047002.5,N
1639162355.6,286047002.0,N
1639162375.4,286047001.9,N
1639162395.2,286047001.6,N
1639162415.1,286047003.9,Y
1639162416.0,286047003.9,P
1639162435.8,286047002.0,N
1639162455.7,286047002.2,N
1639162475.5,286047000.1,N
1639162495.3,286047000.2,N
1639162515.2,286047000.1,N
1639162535.0,286046999.8,N
1639162535.9,286046999.8,N
1639162555.8,286047002.6,N
1639162575.6,286047001.6,N
1639162595.4,286047002.0,N
1639162615.3,286047001.9,N
1639162635.1,286047001.4,N
1639162655.8,286047004.3,Y
1639162675.7,286047000.1,P
1639162695.5,286047000.1,N
1639162715.4,286047002.3,P
1639162735.2,286047002.5,N
1639162755.0,286047002.6,N
1639162755.9,286047002.6,N
1639162775.8,286047002.6,N
1639162795.6,286047002.5,N
